User: anonymous   Login
Location: Medlow Airstrip Trail, Medlow Bath NSW 2780, Australia
(33.6682°S, 150.3233°E)
Time: 10:43:54
(UTC+10:00)
Language:

Transit 4A - Orbit

View from above orbital plane
View from above orbital plane
View from above satellite
View from above satellite

Ground track
Ground track

The orbit data is extracted from the following two-line orbital elements,

1   116U 61015A   19263.84340997 -.00000047  00000-0  23202-4 0  9991
2   116  66.8097 149.7374 0078519 203.2172 156.5353 13.91759086954643
Epoch (UTC): 20 September 2019 20:14:30
Eccentricity: 0.0078519
inclination: 66.8097°
perigee height: 865 km
apogee height: 980 km
right ascension of ascending node: 149.7374°
argument of perigee: 203.2172°
revolutions per day: 13.91759086
mean anomaly at epoch: 156.5353°
orbit number at epoch: 95464

The dashed part of the orbit path shows where the satellite is in the earth's shadow,  

DLR